When you browse on this site, cookies collect data to enhance your experience and personalize the content and advertising you see.
Visit our Privacy Policy to learn more. By continuing to use the site, you agree to this use of cookies and data.
  • Em Portugal
  • Lista de países
  • Para 7 dias
  • Temperatura da água
  • Mapas de satélite
  • Mapa do tempo
  • Widgets de tempo
  • user-avatar
    Iniciar Sessão

    Previsão horária em Michalkowa

    Hoje, 24 Março, Domingo

    Tempo Temperatura Precipitação Vento Pressão Humidade
    00:00 +9°C° 0 mm 3 m/s 728 mmHg 89%
    01:00 +8°C° 0 mm 3 m/s 729 mmHg 87%
    02:00 +7°C° 0 mm 2 m/s 729 mmHg 87%
    03:00 +6°C° 0 mm 2 m/s 728 mmHg 87%
    04:00 +6°C° 0 mm 2 m/s 728 mmHg 88%
    05:00 +5°C° 0 mm 2 m/s 728 mmHg 88%
    06:00 +5°C° 0 mm 2 m/s 728 mmHg 89%
    07:00 +6°C° 0 mm 1 m/s 728 mmHg 89%
    08:00 +7°C° 0 mm 1 m/s 728 mmHg 81%
    09:00 +7°C° 0 mm 2 m/s 728 mmHg 73%
    10:00 +8°C° 0 mm 2 m/s 728 mmHg 65%
    11:00 +8°C° 0 mm 2 m/s 727 mmHg 62%
    12:00 +9°C° 0 mm 2 m/s 727 mmHg 60%
    13:00 +10°C° 0 mm 2 m/s 726 mmHg 58%
    14:00 +10°C° 0 mm 1 m/s 726 mmHg 61%
    15:00 +10°C° 0 mm 1 m/s 725 mmHg 63%
    16:00 +9°C° 0 mm 1 m/s 725 mmHg 66%
    17:00 +9°C° 0.1 mm 1 m/s 724 mmHg 69%
    18:00 +8°C° 0.1 mm 1 m/s 724 mmHg 71%
    19:00 +8°C° 0.1 mm 1 m/s 724 mmHg 74%
    20:00 +7°C° 0.1 mm 1 m/s 724 mmHg 76%
    21:00 +7°C° 0.1 mm 1 m/s 723 mmHg 78%
    22:00 +7°C° 0.1 mm 1 m/s 723 mmHg 80%
    23:00 +6°C° 0 mm 1 m/s 723 mmHg 81%

    Amanhã, 25 Março, Segunda-feira

    Tempo Temperatura Precipitação Vento Pressão Humidade
    00:00 +6°C° 0 mm 1 m/s 722 mmHg 82%
    01:00 +6°C° 0 mm 1 m/s 722 mmHg 83%
    02:00 +4°C° 0 mm 2 m/s 722 mmHg 84%
    03:00 +3°C° 0 mm 2 m/s 721 mmHg 85%
    04:00 +3°C° 0 mm 2 m/s 721 mmHg 87%
    05:00 +3°C° 0 mm 2 m/s 720 mmHg 86%
    06:00 +3°C° 0 mm 2 m/s 720 mmHg 85%
    07:00 +2°C° 0 mm 3 m/s 720 mmHg 84%
    08:00 +3°C° 0 mm 4 m/s 720 mmHg 74%
    09:00 +3°C° 0 mm 5 m/s 720 mmHg 65%
    10:00 +4°C° 0 mm 6 m/s 719 mmHg 56%
    11:00 +4°C° 0.5 mm 6 m/s 719 mmHg 61%
    12:00 +3°C° 0.5 mm 6 m/s 719 mmHg 67%
    13:00 +2°C° 0.5 mm 7 m/s 719 mmHg 72%
    14:00 +2°C° 0.2 mm 6 m/s 719 mmHg 68%
    15:00 +3°C° 0.2 mm 6 m/s 719 mmHg 63%
    16:00 +3°C° 0.2 mm 6 m/s 720 mmHg 58%
    17:00 +2°C° 0 mm 5 m/s 720 mmHg 63%
    18:00 +1°C° 0 mm 4 m/s 720 mmHg 69%
    19:00 +1°C° 0 mm 3 m/s 721 mmHg 75%
    20:00 +1°C° 0 mm 3 m/s 722 mmHg 78%
    21:00 0°C° 0 mm 3 m/s 722 mmHg 81%
    22:00 0°C° 0 mm 3 m/s 723 mmHg 85%
    23:00 -1°C° 0 mm 3 m/s 723 mmHg 87%

    Depois de amanhã, 26 Março, Terça-feira

    Tempo Temperatura Precipitação Vento Pressão Humidade
    00:00 -1°C° 0 mm 3 m/s 724 mmHg 90%
    01:00 -1°C° 0 mm 3 m/s 725 mmHg 92%
    02:00 -2°C° 0 mm 3 m/s 725 mmHg 93%
    03:00 -2°C° 0 mm 3 m/s 726 mmHg 93%
    04:00 -2°C° 0 mm 3 m/s 726 mmHg 94%
    05:00 -2°C° 0 mm 3 m/s 726 mmHg 93%
    06:00 -1°C° 0 mm 3 m/s 727 mmHg 91%
    07:00 -1°C° 0 mm 3 m/s 728 mmHg 90%
    08:00 +1°C° 0 mm 3 m/s 728 mmHg 80%
    09:00 +1°C° 0 mm 4 m/s 728 mmHg 70%
    10:00 +4°C° 0 mm 4 m/s 728 mmHg 60%
    11:00 +5°C° 0 mm 5 m/s 728 mmHg 57%
    12:00 +6°C° 0 mm 5 m/s 728 mmHg 54%
    13:00 +7°C° 0 mm 6 m/s 728 mmHg 50%
    14:00 +5°C° 0 mm 6 m/s 728 mmHg 53%
    15:00 +5°C° 0 mm 6 m/s 728 mmHg 55%
    16:00 +5°C° 0 mm 7 m/s 727 mmHg 58%
    17:00 +3°C° 0 mm 6 m/s 727 mmHg 64%
    18:00 +2°C° 0 mm 5 m/s 728 mmHg 70%
    19:00 +1°C° 0 mm 4 m/s 728 mmHg 76%
    20:00 0°C° 0 mm 4 m/s 728 mmHg 77%
    21:00 +1°C° 0 mm 3 m/s 728 mmHg 78%
    22:00 +1°C° 0 mm 3 m/s 729 mmHg 78%
    23:00 0°C° 0 mm 3 m/s 729 mmHg 81%

    27 Março, Quarta-feira

    Tempo Temperatura Precipitação Vento Pressão Humidade
    00:00 +1°C° 0 mm 2 m/s 729 mmHg 83%
    01:00 +1°C° 0 mm 2 m/s 729 mmHg 86%
    02:00 -1°C° 0 mm 2 m/s 729 mmHg 88%
    03:00 -1°C° 0 mm 2 m/s 729 mmHg 90%
    04:00 0°C° 0 mm 1 m/s 729 mmHg 93%
    05:00 -1°C° 0 mm 2 m/s 729 mmHg 90%
    06:00 +1°C° 0 mm 2 m/s 729 mmHg 88%
    07:00 +1°C° 0 mm 2 m/s 730 mmHg 85%
    08:00 +3°C° 0 mm 2 m/s 730 mmHg 77%
    09:00 +4°C° 0 mm 2 m/s 730 mmHg 69%
    10:00 +5°C° 0 mm 3 m/s 731 mmHg 60%
    11:00 +7°C° 0 mm 3 m/s 730 mmHg 61%
    12:00 +7°C° 0 mm 3 m/s 730 mmHg 62%
    13:00 +7°C° 0 mm 3 m/s 730 mmHg 62%
    14:00 +7°C° 0 mm 3 m/s 730 mmHg 62%
    15:00 +8°C° 0 mm 3 m/s 730 mmHg 61%
    16:00 +8°C° 0 mm 3 m/s 730 mmHg 61%
    17:00 +7°C° 0 mm 3 m/s 730 mmHg 67%
    18:00 +5°C° 0 mm 2 m/s 730 mmHg 72%
    19:00 +4°C° 0 mm 2 m/s 730 mmHg 77%
    20:00 +4°C° 0.3 mm 2 m/s 730 mmHg 79%
    21:00 +4°C° 0.3 mm 2 m/s 730 mmHg 81%
    22:00 +4°C° 0.3 mm 2 m/s 731 mmHg 83%
    23:00 +4°C° 0.4 mm 2 m/s 731 mmHg 85%

    28 Março, Quinta-feira

    Tempo Temperatura Precipitação Vento Pressão Humidade
    00:00 +5°C° 0.4 mm 1 m/s 731 mmHg 87%
    01:00 +5°C° 0.4 mm 1 m/s 731 mmHg 90%
    02:00 +5°C° 0 mm 1 m/s 731 mmHg 91%
    03:00 +4°C° 0 mm 1 m/s 731 mmHg 92%
    04:00 +4°C° 0 mm 1 m/s 731 mmHg 93%
    05:00 +4°C° 0 mm 1 m/s 731 mmHg 92%
    06:00 +4°C° 0 mm 1 m/s 731 mmHg 91%
    07:00 +5°C° 0 mm 1 m/s 731 mmHg 89%
    08:00 +6°C° 0 mm 1 m/s 732 mmHg 84%
    09:00 +7°C° 0 mm 1 m/s 732 mmHg 78%
    10:00 +8°C° 0 mm 1 m/s 732 mmHg 73%
    11:00 +9°C° 0.1 mm 1 m/s 732 mmHg 69%
    12:00 +9°C° 0.1 mm 1 m/s 732 mmHg 65%
    13:00 +10°C° 0.1 mm 1 m/s 732 mmHg 61%
    14:00 +10°C° 0 mm 1 m/s 732 mmHg 62%
    15:00 +9°C° 0 mm 2 m/s 732 mmHg 64%
    16:00 +9°C° 0 mm 2 m/s 732 mmHg 65%
    17:00 +8°C° 0 mm 2 m/s 732 mmHg 71%
    18:00 +8°C° 0 mm 1 m/s 732 mmHg 76%
    19:00 +7°C° 0 mm 1 m/s 732 mmHg 82%
    20:00 +6°C° 0 mm 1 m/s 732 mmHg 84%
    21:00 +5°C° 0 mm 1 m/s 732 mmHg 87%
    22:00 +4°C° 0 mm 1 m/s 732 mmHg 90%
    23:00 +4°C° 0 mm 1 m/s 732 mmHg 90%

    29 Março, Sexta-feira

    Tempo Temperatura Precipitação Vento Pressão Humidade
    00:00 +4°C° 0 mm 1 m/s 732 mmHg 90%
    01:00 +4°C° 0 mm 1 m/s 732 mmHg 90%
    02:00 +4°C° 0 mm 1 m/s 732 mmHg 90%
    03:00 +3°C° 0 mm 1 m/s 732 mmHg 90%
    04:00 +3°C° 0 mm 1 m/s 732 mmHg 90%
    05:00 +4°C° 0 mm 1 m/s 733 mmHg 90%
    06:00 +4°C° 0 mm 1 m/s 733 mmHg 89%
    07:00 +5°C° 0 mm 1 m/s 733 mmHg 89%
    08:00 +7°C° 0 mm 1 m/s 733 mmHg 82%
    09:00 +8°C° 0 mm 1 m/s 733 mmHg 74%
    10:00 +10°C° 0 mm 1 m/s 733 mmHg 67%
    11:00 +11°C° 0 mm 1 m/s 733 mmHg 62%
    12:00 +12°C° 0 mm 1 m/s 733 mmHg 56%
    13:00 +13°C° 0 mm 2 m/s 733 mmHg 51%
    14:00 +13°C° 0 mm 2 m/s 732 mmHg 51%
    15:00 +13°C° 0 mm 2 m/s 732 mmHg 51%
    16:00 +13°C° 0 mm 2 m/s 731 mmHg 50%
    17:00 +10°C° 0 mm 2 m/s 731 mmHg 58%
    18:00 +10°C° 0 mm 1 m/s 731 mmHg 66%
    19:00 +8°C° 0 mm 1 m/s 731 mmHg 74%
    20:00 +7°C° 0 mm 1 m/s 731 mmHg 77%
    21:00 +7°C° 0 mm 1 m/s 731 mmHg 81%
    22:00 +5°C° 0 mm 0 m/s 731 mmHg 84%
    23:00 +5°C° 0 mm 0 m/s 731 mmHg 85%
    Mostrar mais